| time (UTC) | temp F | wind direction | speed MPH | gust MPH | rain 1hr in | rain 24hr in | rain mn in | humidity % | barometer mb |
| 20260905120406 | 67 | 223 | 0.0 | 0.0 | 0.00 | 0.00 | 0.00 | 41 | 1020.6 |
| 20260905120402 | 68 | 240 | 0.0 | 1.0 | 0.00 | 0.00 | 0.00 | 40 | 1020.6 |
| 20260905115400 | 67 | 214 | 0.0 | 2.0 | 0.00 | 0.00 | 0.00 | 42 | 1020.6 |
| 20260905115131 | 68 | 214 | 0.0 | 2.0 | 0.00 | 0.00 | 0.00 | 42 | 1020.6 |
| 20260905114400 | 69 | 216 | 0.0 | 2.0 | 0.00 | 0.00 | 0.00 | 39 | 1020.6 |
| 20260905113902 | 69 | 285 | 0.0 | 1.0 | 0.00 | 0.00 | 0.00 | 39 | 1020.6 |
| 20260905113359 | 69 | 286 | 0.0 | 2.0 | 0.00 | 0.00 | 0.00 | 40 | 1020.6 |
| 20260905112859 | 69 | 285 | 0.0 | 2.0 | 0.00 | 0.00 | 0.00 | 41 | 1020.6 |
| 20260905112359 | 70 | 286 | 0.0 | 2.0 | 0.00 | 0.00 | 0.00 | 38 | 1020.6 |
| 20260905112132 | 72 | 286 | 1.0 | 3.0 | 0.00 | 0.00 | 0.00 | 36 | 1020.6 |
| 20260905111402 | 73 | 275 | 1.0 | 3.0 | 0.00 | 0.00 | 0.00 | 35 | 1020.6 |
| 20260905111131 | 72 | 273 | 0.0 | 2.0 | 0.00 | 0.00 | 0.00 | 36 | 1020.6 |
| 20260905110357 | 72 | 276 | 0.0 | 2.0 | 0.00 | 0.00 | 0.00 | 36 | 1020.6 |
| 20260905105859 | 72 | 280 | 0.0 | 2.0 | 0.00 | 0.00 | 0.00 | 36 | 1020.6 |
| 20260905105358 | 73 | 279 | 0.0 | 1.0 | 0.00 | 0.00 | 0.00 | 37 | 1020.6 |
| 20260905104857 | 73 | 279 | 0.0 | 2.0 | 0.00 | 0.00 | 0.00 | 36 | 1020.6 |
| 20260905104359 | 72 | 279 | 0.0 | 2.0 | 0.00 | 0.00 | 0.00 | 38 | 1020.6 |
| 20260905103858 | 71 | 293 | 1.0 | 2.0 | 0.00 | 0.00 | 0.00 | 39 | 1020.6 |
| 20260905103634 | 71 | 293 | 1.0 | 2.0 | 0.00 | 0.00 | 0.00 | 39 | 1020.6 |
| 20260905102357 | 71 | 286 | 0.0 | 0.0 | 0.00 | 0.00 | 0.00 | 39 | 1020.6 |
| 20260905101900 | 71 | 286 | 0.0 | 1.0 | 0.00 | 0.00 | 0.00 | 39 | 1020.6 |
| 20260905101357 | 72 | 286 | 1.0 | 3.0 | 0.00 | 0.00 | 0.00 | 39 | 1020.6 |
| 20260905100857 | 73 | 286 | 1.0 | 3.0 | 0.00 | 0.00 | 0.00 | 37 | 1020.6 |
| 20260905100357 | 73 | 279 | 2.0 | 4.0 | 0.00 | 0.00 | 0.00 | 37 | 1020.6 |
| 20260905095858 | 72 | 284 | 1.0 | 4.0 | 0.00 | 0.00 | 0.00 | 38 | 1020.6 |
| 20260905095358 | 73 | 271 | 1.0 | 3.0 | 0.00 | 0.00 | 0.00 | 37 | 1020.6 |
| 20260905094859 | 73 | 278 | 0.0 | 2.0 | 0.00 | 0.00 | 0.00 | 36 | 1020.6 |
| 20260905094358 | 73 | 278 | 1.0 | 3.0 | 0.00 | 0.00 | 0.00 | 36 | 1020.6 |
| 20260905093900 | 73 | 278 | 0.0 | 3.0 | 0.00 | 0.00 | 0.00 | 37 | 1020.6 |
| 20260905093358 | 73 | 279 | 1.0 | 3.0 | 0.00 | 0.00 | 0.00 | 37 | 1020.6 |
| 20260905092857 | 74 | 281 | 1.0 | 3.0 | 0.00 | 0.00 | 0.00 | 36 | 1020.6 |
| 20260905092628 | 74 | 277 | 1.0 | 3.0 | 0.00 | 0.00 | 0.00 | 36 | 1020.6 |
| 20260905091855 | 74 | 269 | 2.0 | 3.0 | 0.00 | 0.00 | 0.00 | 36 | 1020.6 |
| 20260905091356 | 74 | 274 | 2.0 | 3.0 | 0.00 | 0.00 | 0.00 | 36 | 1020.6 |
| 20260905090857 | 74 | 276 | 1.0 | 2.0 | 0.00 | 0.00 | 0.00 | 36 | 1020.6 |
| 20260905090358 | 73 | 270 | 1.0 | 3.0 | 0.00 | 0.00 | 0.00 | 36 | 1020.6 |
| 20260905085855 | 73 | 280 | 1.0 | 3.0 | 0.00 | 0.00 | 0.00 | 37 | 1020.6 |
| 20260905085355 | 73 | 278 | 1.0 | 2.0 | 0.00 | 0.00 | 0.00 | 37 | 1020.6 |
| 20260905084856 | 73 | 274 | 2.0 | 3.0 | 0.00 | 0.00 | 0.00 | 37 | 1020.6 |
| 20260905084402 | 71 | 281 | 0.0 | 2.0 | 0.00 | 0.00 | 0.00 | 38 | 1020.6 |
| 20260905084357 | 72 | 274 | 1.0 | 3.0 | 0.00 | 0.00 | 0.00 | 37 | 1020.6 |
| 20260905083356 | 71 | 264 | 0.0 | 0.0 | 0.00 | 0.00 | 0.00 | 39 | 1020.6 |
| 20260905082856 | 71 | 264 | 0.0 | 0.0 | 0.00 | 0.00 | 0.00 | 38 | 1020.6 |
| 20260905082626 | 72 | 264 | 0.0 | 0.0 | 0.00 | 0.00 | 0.00 | 38 | 1020.6 |
| 20260905081853 | 71 | 264 | 0.0 | 1.0 | 0.00 | 0.00 | 0.00 | 38 | 1020.6 |
| 20260905081355 | 71 | 264 | 0.0 | 1.0 | 0.00 | 0.00 | 0.00 | 38 | 1020.6 |
| 20260905080853 | 71 | 264 | 0.0 | 1.0 | 0.00 | 0.00 | 0.00 | 39 | 1020.6 |
| 20260905080356 | 71 | 264 | 0.0 | 0.0 | 0.00 | 0.00 | 0.00 | 39 | 1020.6 |
| 20260905075854 | 71 | 264 | 0.0 | 1.0 | 0.00 | 0.00 | 0.00 | 39 | 1020.6 |
| 20260905075356 | 71 | 264 | 0.0 | 1.0 | 0.00 | 0.00 | 0.00 | 39 | 1020.6 |
| 20260905074855 | 71 | 264 | 0.0 | 0.0 | 0.00 | 0.00 | 0.00 | 38 | 1020.6 |
| 20260905074353 | 71 | 264 | 0.0 | 0.0 | 0.00 | 0.00 | 0.00 | 39 | 1020.6 |
| 20260905073852 | 71 | 202 | 0.0 | 1.0 | 0.00 | 0.00 | 0.00 | 38 | 1020.6 |
| 20260905073353 | 72 | 158 | 0.0 | 1.0 | 0.00 | 0.00 | 0.00 | 38 | 1020.6 |
| 20260905072851 | 72 | 257 | 0.0 | 1.0 | 0.00 | 0.00 | 0.00 | 37 | 1020.6 |
| 20260905072352 | 73 | 265 | 0.0 | 2.0 | 0.00 | 0.00 | 0.00 | 38 | 1020.6 |
| 20260905071851 | 73 | 270 | 1.0 | 2.0 | 0.00 | 0.00 | 0.00 | 37 | 1020.6 |
| 20260905071352 | 73 | 270 | 1.0 | 3.0 | 0.00 | 0.00 | 0.00 | 37 | 1020.6 |
| 20260905071127 | 73 | 276 | 0.0 | 3.0 | 0.00 | 0.00 | 0.00 | 37 | 1020.6 |
| 20260905070624 | 73 | 274 | 0.0 | 1.0 | 0.00 | 0.00 | 0.00 | 37 | 1020.6 |
| 20260905070122 | 73 | 274 | 1.0 | 5.0 | 0.00 | 0.00 | 0.00 | 37 | 1020.6 |
| 20260905065351 | 73 | 274 | 2.0 | 6.0 | 0.00 | 0.00 | 0.00 | 37 | 1020.6 |
| 20260905064849 | 74 | 292 | 3.0 | 6.0 | 0.00 | 0.00 | 0.00 | 36 | 1020.6 |
| 20260905064350 | 73 | 281 | 2.0 | 5.0 | 0.00 | 0.00 | 0.00 | 36 | 1020.6 |
| 20260905064120 | 73 | 278 | 2.0 | 4.0 | 0.00 | 0.00 | 0.00 | 37 | 1020.6 |
| 20260905063350 | 73 | 281 | 1.0 | 4.0 | 0.00 | 0.00 | 0.00 | 36 | 1020.6 |
| 20260905062848 | 73 | 275 | 2.0 | 3.0 | 0.00 | 0.00 | 0.00 | 36 | 1020.6 |
| 20260905062349 | 73 | 281 | 2.0 | 4.0 | 0.00 | 0.00 | 0.00 | 36 | 1020.6 |
| 20260905062123 | 73 | 285 | 2.0 | 4.0 | 0.00 | 0.00 | 0.00 | 36 | 1020.6 |
| 20260905061347 | 73 | 285 | 3.0 | 4.0 | 0.00 | 0.00 | 0.00 | 37 | 1020.6 |
| 20260905060848 | 72 | 297 | 2.0 | 4.0 | 0.00 | 0.00 | 0.00 | 38 | 1020.6 |
| 20260905060348 | 72 | 278 | 2.0 | 4.0 | 0.00 | 0.00 | 0.00 | 38 | 1020.6 |
| 20260905060118 | 72 | 286 | 2.0 | 4.0 | 0.00 | 0.00 | 0.00 | 38 | 1020.6 |
| 20260905055346 | 73 | 296 | 2.0 | 4.0 | 0.00 | 0.00 | 0.00 | 37 | 1020.6 |
| 20260905054847 | 72 | 288 | 3.0 | 7.0 | 0.00 | 0.00 | 0.00 | 37 | 1020.6 |
| 20260905054348 | 72 | 295 | 4.0 | 7.0 | 0.00 | 0.00 | 0.00 | 38 | 1020.6 |
| 20260905053847 | 72 | 307 | 4.0 | 7.0 | 0.00 | 0.00 | 0.00 | 38 | 1020.6 |
| 20260905053346 | 73 | 285 | 4.0 | 7.0 | 0.00 | 0.00 | 0.00 | 37 | 1020.6 |
| 20260905052847 | 73 | 295 | 4.0 | 6.0 | 0.00 | 0.00 | 0.00 | 37 | 1020.6 |
| 20260905052349 | 73 | 294 | 4.0 | 6.0 | 0.00 | 0.00 | 0.00 | 37 | 1020.6 |
| 20260905051848 | 72 | 283 | 4.0 | 6.0 | 0.00 | 0.00 | 0.00 | 38 | 1020.6 |
| 20260905051348 | 72 | 297 | 4.0 | 6.0 | 0.00 | 0.00 | 0.00 | 38 | 1020.6 |
| 20260905050847 | 71 | 301 | 4.0 | 6.0 | 0.00 | 0.00 | 0.00 | 39 | 1020.6 |
| 20260905050349 | 71 | 301 | 4.0 | 6.0 | 0.00 | 0.00 | 0.00 | 39 | 1020.6 |
| 20260905050117 | 71 | 302 | 4.0 | 6.0 | 0.00 | 0.00 | 0.00 | 39 | 1020.6 |
| 20260905045348 | 71 | 296 | 4.0 | 5.0 | 0.00 | 0.00 | 0.00 | 40 | 1020.6 |
| 20260905044847 | 71 | 293 | 4.0 | 6.0 | 0.00 | 0.00 | 0.00 | 39 | 1020.6 |
| 20260905044347 | 71 | 304 | 4.0 | 6.0 | 0.00 | 0.00 | 0.00 | 39 | 1020.6 |
| 20260905043847 | 71 | 296 | 4.0 | 6.0 | 0.00 | 0.00 | 0.00 | 39 | 1020.6 |
| 20260905043346 | 72 | 304 | 4.0 | 6.0 | 0.00 | 0.00 | 0.00 | 38 | 1020.6 |
| 20260905043118 | 72 | 302 | 4.0 | 6.0 | 0.00 | 0.00 | 0.00 | 38 | 1020.6 |
| 20260905042348 | 73 | 311 | 4.0 | 7.0 | 0.00 | 0.00 | 0.00 | 38 | 1020.6 |
| 20260905041846 | 74 | 297 | 4.0 | 7.0 | 0.00 | 0.00 | 0.00 | 37 | 1020.6 |
| 20260905041348 | 74 | 316 | 4.0 | 6.0 | 0.00 | 0.00 | 0.00 | 37 | 1020.6 |
| 20260905040849 | 74 | 333 | 3.0 | 6.0 | 0.00 | 0.00 | 0.00 | 37 | 1020.6 |
| 20260905040351 | 75 | 325 | 3.0 | 7.0 | 0.00 | 0.00 | 0.00 | 36 | 1020.6 |
| 20260905040346 | 74 | 333 | 3.0 | 6.0 | 0.00 | 0.00 | 0.00 | 37 | 1020.6 |
| 20260905035349 | 75 | 323 | 3.0 | 7.0 | 0.00 | 0.00 | 0.00 | 36 | 1020.6 |
| 20260905034847 | 75 | 323 | 2.0 | 6.0 | 0.00 | 0.00 | 0.00 | 36 | 1020.6 |
| 20260905034619 | 75 | 345 | 2.0 | 6.0 | 0.00 | 0.00 | 0.00 | 35 | 1020.6 |
| 20260905033848 | 75 | 299 | 2.0 | 4.0 | 0.00 | 0.00 | 0.00 | 36 | 1020.6 |
| 20260905033346 | 75 | 311 | 2.0 | 5.0 | 0.00 | 0.00 | 0.00 | 35 | 1020.6 |
| 20260905032847 | 75 | 313 | 2.0 | 5.0 | 0.00 | 0.00 | 0.00 | 36 | 1020.6 |
| 20260905032346 | 74 | 310 | 2.0 | 4.0 | 0.00 | 0.00 | 0.00 | 36 | 1020.6 |
| 20260905031848 | 75 | 304 | 1.0 | 3.0 | 0.00 | 0.00 | 0.00 | 36 | 1020.6 |
| 20260905031347 | 76 | 301 | 1.0 | 2.0 | 0.00 | 0.00 | 0.00 | 35 | 1020.6 |
| 20260905030846 | 76 | 288 | 1.0 | 2.0 | 0.00 | 0.00 | 0.00 | 35 | 1020.6 |
| 20260905030348 | 76 | 278 | 0.0 | 2.0 | 0.00 | 0.00 | 0.00 | 35 | 1020.6 |
| 20260905025848 | 76 | 325 | 1.0 | 3.0 | 0.00 | 0.00 | 0.00 | 34 | 1020.6 |
| 20260905025350 | 77 | 335 | 2.0 | 6.0 | 0.00 | 0.00 | 0.00 | 34 | 1020.6 |
| 20260905024846 | 77 | 301 | 2.0 | 6.0 | 0.00 | 0.00 | 0.00 | 34 | 1020.6 |
| 20260905024350 | 77 | 7 | 2.0 | 4.0 | 0.00 | 0.00 | 0.00 | 34 | 1020.6 |
| 20260905023846 | 77 | 309 | 2.0 | 4.0 | 0.00 | 0.00 | 0.00 | 33 | 1020.6 |
| 20260905023346 | 77 | 328 | 2.0 | 4.0 | 0.00 | 0.00 | 0.00 | 34 | 1020.6 |
| 20260905023119 | 77 | 323 | 1.0 | 6.0 | 0.00 | 0.00 | 0.00 | 35 | 1020.6 |
| 20260905022619 | 77 | 335 | 1.0 | 6.0 | 0.00 | 0.00 | 0.00 | 35 | 1020.6 |
| 20260905022507 | 77 | 311 | 1.0 | 4.0 | 0.00 | 0.00 | 0.00 | 35 | 1020.6 |
| 20260905021345 | 77 | 330 | 1.0 | 4.0 | 0.00 | 0.00 | 0.00 | 34 | 1020.6 |
| 20260905020846 | 77 | 303 | 1.0 | 3.0 | 0.00 | 0.00 | 0.00 | 34 | 1020.6 |
| 20260905020345 | 77 | 322 | 1.0 | 3.0 | 0.00 | 0.00 | 0.00 | 34 | 1020.6 |
| 20260905015847 | 77 | 326 | 1.0 | 3.0 | 0.00 | 0.00 | 0.00 | 34 | 1020.6 |
| 20260905015343 | 77 | 304 | 0.0 | 2.0 | 0.00 | 0.00 | 0.00 | 34 | 1020.6 |
| 20260905014842 | 77 | 359 | 0.0 | 1.0 | 0.00 | 0.00 | 0.00 | 34 | 1020.6 |
| 20260905014341 | 78 | 359 | 0.0 | 1.0 | 0.00 | 0.00 | 0.00 | 33 | 1020.6 |
| 20260905013842 | 78 | 359 | 0.0 | 2.0 | 0.00 | 0.00 | 0.00 | 33 | 1020.6 |
| 20260905013342 | 79 | 359 | 0.0 | 2.0 | 0.00 | 0.00 | 0.00 | 33 | 1020.6 |
| 20260905012841 | 79 | 1 | 0.0 | 1.0 | 0.00 | 0.00 | 0.00 | 33 | 1020.6 |
| 20260905012340 | 79 | 96 | 0.0 | 0.0 | 0.00 | 0.00 | 0.00 | 33 | 1020.6 |
| 20260905012113 | 79 | 96 | 0.0 | 2.0 | 0.00 | 0.00 | 0.00 | 33 | 1020.6 |
| 20260905011342 | 80 | 96 | 0.0 | 4.0 | 0.00 | 0.00 | 0.00 | 33 | 1020.6 |
| 20260905010841 | 80 | 96 | 0.0 | 4.0 | 0.00 | 0.00 | 0.00 | 32 | 1020.6 |
| 20260905010609 | 80 | 94 | 1.0 | 2.0 | 0.00 | 0.00 | 0.00 | 32 | 1020.6 |
| 20260905005840 | 80 | 84 | 2.0 | 6.0 | 0.00 | 0.00 | 0.00 | 32 | 1020.6 |
| 20260905005338 | 81 | 71 | 3.0 | 6.0 | 0.00 | 0.00 | 0.00 | 31 | 1020.6 |
| 20260905004840 | 81 | 87 | 3.0 | 7.0 | 0.00 | 0.00 | 0.00 | 31 | 1020.6 |
| 20260905004341 | 81 | 79 | 3.0 | 7.0 | 0.00 | 0.00 | 0.00 | 31 | 1020.6 |
| 20260905003838 | 81 | 96 | 4.0 | 7.0 | 0.00 | 0.00 | 0.00 | 31 | 1020.6 |
| 20260905003338 | 82 | 106 | 3.0 | 7.0 | 0.00 | 0.00 | 0.00 | 30 | 1020.6 |
| 20260905002838 | 82 | 111 | 3.0 | 7.0 | 0.00 | 0.00 | 0.00 | 30 | 1020.6 |
| 20260905002338 | 82 | 111 | 4.0 | 7.0 | 0.00 | 0.00 | 0.00 | 30 | 1020.6 |
| 20260905002112 | 83 | 86 | 4.0 | 9.0 | 0.00 | 0.00 | 0.00 | 29 | 1020.6 |
| 20260905001336 | 83 | 103 | 5.0 | 9.0 | 0.00 | 0.00 | 0.00 | 29 | 1020.6 |
| 20260905000837 | 83 | 83 | 5.0 | 9.0 | 0.00 | 0.00 | 0.00 | 28 | 1020.6 |
| 20260905000340 | 84 | 116 | 6.0 | 11.0 | 0.00 | 0.00 | 0.00 | 28 | 1020.6 |
| 20260904235836 | 84 | 98 | 7.0 | 11.0 | 0.00 | 0.00 | 0.00 | 27 | 1020.6 |
| 20260904235609 | 85 | 84 | 6.0 | 10.0 | 0.00 | 0.00 | 0.00 | 26 | 1020.6 |
| 20260904234836 | 85 | 86 | 6.0 | 11.0 | 0.00 | 0.00 | 0.00 | 25 | 1020.6 |
| 20260904234337 | 86 | 84 | 6.0 | 11.0 | 0.00 | 0.00 | 0.00 | 25 | 1020.6 |
| 20260904233838 | 86 | 93 | 6.0 | 10.0 | 0.00 | 0.00 | 0.00 | 25 | 1020.6 |
| 20260904233337 | 86 | 79 | 5.0 | 9.0 | 0.00 | 0.00 | 0.00 | 25 | 1020.6 |
| 20260904232836 | 86 | 66 | 3.0 | 9.0 | 0.00 | 0.00 | 0.00 | 24 | 1020.6 |
| 20260904232334 | 87 | 93 | 1.0 | 7.0 | 0.00 | 0.00 | 0.00 | 22 | 1020.6 |
| 20260904231834 | 87 | 96 | 2.0 | 6.0 | 0.00 | 0.00 | 0.00 | 22 | 1020.6 |
| 20260904231608 | 88 | 138 | 3.0 | 7.0 | 0.00 | 0.00 | 0.00 | 21 | 1020.6 |
| 20260904230836 | 88 | 83 | 3.0 | 7.0 | 0.00 | 0.00 | 0.00 | 20 | 1020.6 |
| 20260904230334 | 89 | 114 | 2.0 | 6.0 | 0.00 | 0.00 | 0.00 | 20 | 1020.6 |
| 20260904225835 | 89 | 78 | 1.0 | 5.0 | 0.00 | 0.00 | 0.00 | 20 | 1020.6 |
| 20260904225335 | 89 | 97 | 1.0 | 6.0 | 0.00 | 0.00 | 0.00 | 20 | 1020.6 |
| 20260904224834 | 89 | 355 | 2.0 | 7.0 | 0.00 | 0.00 | 0.00 | 19 | 1020.6 |
| 20260904224607 | 90 | 94 | 3.0 | 7.0 | 0.00 | 0.00 | 0.00 | 19 | 1020.6 |
| 20260904223832 | 90 | 113 | 3.0 | 7.0 | 0.00 | 0.00 | 0.00 | 19 | 1020.6 |
| 20260904223603 | 90 | 115 | 2.0 | 7.0 | 0.00 | 0.00 | 0.00 | 20 | 1020.6 |
| 20260904223107 | 90 | 135 | 3.0 | 8.0 | 0.00 | 0.00 | 0.00 | 20 | 1020.6 |
| 20260904222602 | 89 | 109 | 3.0 | 9.0 | 0.00 | 0.00 | 0.00 | 20 | 1020.6 |
| 20260904221833 | 90 | 75 | 2.0 | 9.0 | 0.00 | 0.00 | 0.00 | 20 | 1020.6 |
| 20260904221334 | 89 | 98 | 2.0 | 6.0 | 0.00 | 0.00 | 0.00 | 20 | 1020.6 |
| 20260904220832 | 89 | 238 | 3.0 | 6.0 | 0.00 | 0.00 | 0.00 | 20 | 1020.6 |
| 20260904220332 | 89 | 122 | 2.0 | 8.0 | 0.00 | 0.00 | 0.00 | 20 | 1020.6 |
| 20260904215832 | 89 | 79 | 3.0 | 8.0 | 0.00 | 0.00 | 0.00 | 20 | 1020.6 |
| 20260904215334 | 89 | 89 | 4.0 | 9.0 | 0.00 | 0.00 | 0.00 | 20 | 1020.6 |
| 20260904214830 | 89 | 119 | 2.0 | 9.0 | 0.00 | 0.00 | 0.00 | 20 | 1020.6 |
| 20260904214603 | 89 | 94 | 1.0 | 6.0 | 0.00 | 0.00 | 0.00 | 20 | 1020.6 |
| 20260904213832 | 89 | 107 | 1.0 | 5.0 | 0.00 | 0.00 | 0.00 | 19 | 1020.6 |
| 20260904213331 | 90 | 99 | 4.0 | 11.0 | 0.00 | 0.00 | 0.00 | 20 | 1020.6 |
| 20260904212830 | 89 | 83 | 6.0 | 13.0 | 0.00 | 0.00 | 0.00 | 20 | 1020.6 |
| 20260904212330 | 89 | 77 | 5.0 | 13.0 | 0.00 | 0.00 | 0.00 | 20 | 1020.6 |
| 20260904211832 | 89 | 76 | 5.0 | 8.0 | 0.00 | 0.00 | 0.00 | 20 | 1020.6 |
| 20260904211331 | 90 | 70 | 3.0 | 8.0 | 0.00 | 0.00 | 0.00 | 20 | 1020.6 |
| 20260904210831 | 90 | 56 | 2.0 | 6.0 | 0.00 | 0.00 | 0.00 | 20 | 1020.6 |
| 20260904210330 | 89 | 253 | 3.0 | 11.0 | 0.00 | 0.00 | 0.00 | 20 | 1020.6 |
| 20260904205831 | 89 | 119 | 4.0 | 12.0 | 0.00 | 0.00 | 0.00 | 20 | 1020.6 |
| 20260904205329 | 90 | 109 | 3.0 | 16.0 | 0.00 | 0.00 | 0.00 | 20 | 1020.6 |
| 20260904205100 | 90 | 157 | 3.0 | 16.0 | 0.00 | 0.00 | 0.00 | 20 | 1020.6 |
| 20260904204331 | 90 | 98 | 3.0 | 10.0 | 0.00 | 0.00 | 0.00 | 19 | 1020.6 |
| 20260904203829 | 90 | 150 | 5.0 | 10.0 | 0.00 | 0.00 | 0.00 | 19 | 1020.6 |
| 20260904203329 | 90 | 79 | 6.0 | 14.0 | 0.00 | 0.00 | 0.00 | 20 | 1020.6 |
| 20260904202829 | 89 | 73 | 7.0 | 14.0 | 0.00 | 0.00 | 0.00 | 20 | 1020.6 |
| 20260904202330 | 89 | 75 | 7.0 | 13.0 | 0.00 | 0.00 | 0.00 | 20 | 1020.6 |
| 20260904201825 | 89 | 89 | 6.0 | 13.0 | 0.00 | 0.00 | 0.00 | 21 | 1020.6 |
| 20260904201559 | 88 | 101 | 7.0 | 15.0 | 0.00 | 0.00 | 0.00 | 21 | 1020.6 |
| 20260904200826 | 88 | 108 | 8.0 | 17.0 | 0.00 | 0.00 | 0.00 | 20 | 1020.6 |
| 20260904200555 | 88 | 90 | 7.0 | 17.0 | 0.00 | 0.00 | 0.00 | 20 | 1020.6 |
| 20260904195824 | 88 | 103 | 6.0 | 12.0 | 0.00 | 0.00 | 0.00 | 20 | 1020.6 |
| 20260904195323 | 88 | 72 | 4.0 | 10.0 | 0.00 | 0.00 | 0.00 | 20 | 1020.6 |
| 20260904194823 | 88 | 145 | 5.0 | 10.0 | 0.00 | 0.00 | 0.00 | 21 | 1020.6 |
| 20260904194323 | 88 | 163 | 5.0 | 11.0 | 0.00 | 0.00 | 0.00 | 21 | 1020.6 |
| 20260904193820 | 88 | 116 | 6.0 | 13.0 | 0.00 | 0.00 | 0.00 | 20 | 1020.6 |
| 20260904193324 | 89 | 122 | 5.0 | 13.0 | 0.00 | 0.00 | 0.00 | 20 | 1020.6 |
| 20260904192821 | 88 | 80 | 3.0 | 10.0 | 0.00 | 0.00 | 0.00 | 20 | 1020.6 |
| 20260904192318 | 89 | 87 | 3.0 | 10.0 | 0.00 | 0.00 | 0.00 | 21 | 1020.6 |
| 20260904191818 | 89 | 86 | 5.0 | 11.0 | 0.00 | 0.00 | 0.00 | 22 | 1020.6 |
| 20260904191319 | 88 | 96 | 4.0 | 11.0 | 0.00 | 0.00 | 0.00 | 21 | 1020.6 |
| 20260904190817 | 88 | 111 | 3.0 | 8.0 | 0.00 | 0.00 | 0.00 | 20 | 1020.6 |
| 20260904190317 | 88 | 103 | 3.0 | 8.0 | 0.00 | 0.00 | 0.00 | 21 | 1020.6 |
| 20260904185816 | 87 | 85 | 4.0 | 16.0 | 0.00 | 0.00 | 0.00 | 22 | 1020.6 |
| 20260904185548 | 87 | 82 | 4.0 | 16.0 | 0.00 | 0.00 | 0.00 | 21 | 1020.6 |
| 20260904184815 | 87 | 94 | 6.0 | 13.0 | 0.00 | 0.00 | 0.00 | 21 | 1020.6 |
| 20260904184315 | 87 | 117 | 7.0 | 13.0 | 0.00 | 0.00 | 0.00 | 22 | 1020.6 |
| 20260904183817 | 87 | 96 | 6.0 | 12.0 | 0.00 | 0.00 | 0.00 | 21 | 1020.6 |
| 20260904183314 | 87 | 63 | 7.0 | 13.0 | 0.00 | 0.00 | 0.00 | 21 | 1020.6 |
| 20260904182814 | 86 | 72 | 4.0 | 13.0 | 0.00 | 0.00 | 0.00 | 21 | 1020.6 |
| 20260904182315 | 87 | 96 | 4.0 | 11.0 | 0.00 | 0.00 | 0.00 | 21 | 1020.6 |
| 20260904181815 | 86 | 70 | 4.0 | 11.0 | 0.00 | 0.00 | 0.00 | 22 | 1020.6 |
| 20260904181313 | 87 | 107 | 5.0 | 12.0 | 0.00 | 0.00 | 0.00 | 23 | 1020.6 |
| 20260904180813 | 86 | 151 | 6.0 | 12.0 | 0.00 | 0.00 | 0.00 | 22 | 1020.6 |
| 20260904180312 | 86 | 92 | 5.0 | 11.0 | 0.00 | 0.00 | 0.00 | 23 | 1020.6 |
| 20260904175812 | 85 | 90 | 5.0 | 10.0 | 0.00 | 0.00 | 0.00 | 22 | 1020.6 |
| 20260904175313 | 86 | 127 | 4.0 | 11.0 | 0.00 | 0.00 | 0.00 | 22 | 1020.6 |
| 20260904175044 | 86 | 70 | 3.0 | 11.0 | 0.00 | 0.00 | 0.00 | 22 | 1020.6 |
| 20260904174310 | 86 | 70 | 3.0 | 10.0 | 0.00 | 0.00 | 0.00 | 22 | 1020.6 |
| 20260904173812 | 85 | 84 | 3.0 | 10.0 | 0.00 | 0.00 | 0.00 | 22 | 1020.6 |
| 20260904173310 | 85 | 129 | 3.0 | 9.0 | 0.00 | 0.00 | 0.00 | 23 | 1020.6 |
| 20260904172809 | 85 | 126 | 4.0 | 9.0 | 0.00 | 0.00 | 0.00 | 22 | 1020.6 |
| 20260904172308 | 84 | 180 | 5.0 | 9.0 | 0.00 | 0.00 | 0.00 | 24 | 1020.6 |
| 20260904171809 | 84 | 89 | 5.0 | 11.0 | 0.00 | 0.00 | 0.00 | 24 | 1020.6 |
| 20260904171308 | 84 | 105 | 5.0 | 11.0 | 0.00 | 0.00 | 0.00 | 24 | 1020.6 |
| 20260904170808 | 84 | 120 | 6.0 | 11.0 | 0.00 | 0.00 | 0.00 | 24 | 1020.6 |
| 20260904170308 | 85 | 99 | 5.0 | 13.0 | 0.00 | 0.00 | 0.00 | 23 | 1020.6 |
| 20260904165809 | 85 | 88 | 3.0 | 13.0 | 0.00 | 0.00 | 0.00 | 24 | 1020.6 |
| 20260904165309 | 84 | 198 | 2.0 | 7.0 | 0.00 | 0.00 | 0.00 | 24 | 1020.6 |
| 20260904164807 | 84 | 129 | 2.0 | 6.0 | 0.00 | 0.00 | 0.00 | 24 | 1020.6 |
| 20260904164308 | 84 | 116 | 2.0 | 6.0 | 0.00 | 0.00 | 0.00 | 25 | 1020.6 |
| 20260904163809 | 83 | 95 | 3.0 | 6.0 | 0.00 | 0.00 | 0.00 | 26 | 1020.6 |
| 20260904163307 | 83 | 103 | 3.0 | 8.0 | 0.00 | 0.00 | 0.00 | 28 | 1020.6 |
| 20260904162807 | 83 | 106 | 2.0 | 8.0 | 0.00 | 0.00 | 0.00 | 29 | 1020.6 |
| 20260904162310 | 83 | 98 | 1.0 | 4.0 | 0.00 | 0.00 | 0.00 | 29 | 1020.6 |
| 20260904161810 | 82 | 102 | 2.0 | 7.0 | 0.00 | 0.00 | 0.00 | 29 | 1020.6 |
| 20260904161307 | 82 | 75 | 3.0 | 7.0 | 0.00 | 0.00 | 0.00 | 28 | 1020.6 |
| 20260904161039 | 81 | 98 | 3.0 | 9.0 | 0.00 | 0.00 | 0.00 | 29 | 1020.6 |
| 20260904160928 | 81 | 107 | 4.0 | 9.0 | 0.00 | 0.00 | 0.00 | 28 | 1020.6 |
| 20260904155809 | 81 | 72 | 4.0 | 7.0 | 0.00 | 0.00 | 0.00 | 27 | 1020.6 |
| 20260904155308 | 81 | 84 | 4.0 | 7.0 | 0.00 | 0.00 | 0.00 | 27 | 1020.6 |
| 20260904154808 | 81 | 84 | 2.0 | 6.0 | 0.00 | 0.00 | 0.00 | 27 | 1020.6 |
| 20260904154309 | 81 | 117 | 2.0 | 5.0 | 0.00 | 0.00 | 0.00 | 27 | 1020.6 |
| 20260904153809 | 81 | 189 | 2.0 | 5.0 | 0.00 | 0.00 | 0.00 | 28 | 1020.6 |
| 20260904153308 | 81 | 77 | 1.0 | 5.0 | 0.00 | 0.00 | 0.00 | 28 | 1020.6 |
| 20260904152807 | 81 | 96 | 1.0 | 5.0 | 0.00 | 0.00 | 0.00 | 28 | 1020.6 |
| 20260904152308 | 81 | 79 | 1.0 | 3.0 | 0.00 | 0.00 | 0.00 | 28 | 1020.6 |
| 20260904151809 | 80 | 108 | 1.0 | 2.0 | 0.00 | 0.00 | 0.00 | 28 | 1020.6 |
| 20260904151309 | 79 | 115 | 1.0 | 4.0 | 0.00 | 0.00 | 0.00 | 29 | 1020.6 |
| 20260904150809 | 78 | 160 | 1.0 | 5.0 | 0.00 | 0.00 | 0.00 | 29 | 1020.6 |
| 20260904150309 | 78 | 79 | 1.0 | 5.0 | 0.00 | 0.00 | 0.00 | 30 | 1020.6 |
| 20260904145808 | 78 | 120 | 1.0 | 2.0 | 0.00 | 0.00 | 0.00 | 30 | 1020.6 |
| 20260904145307 | 78 | 149 | 0.0 | 2.0 | 0.00 | 0.00 | 0.00 | 29 | 1020.6 |
| 20260904144808 | 77 | 144 | 0.0 | 2.0 | 0.00 | 0.00 | 0.00 | 30 | 1020.6 |
| 20260904144308 | 77 | 235 | 0.0 | 1.0 | 0.00 | 0.00 | 0.00 | 31 | 1020.6 |
| 20260904143805 | 76 | 260 | 0.0 | 2.0 | 0.00 | 0.00 | 0.00 | 32 | 1020.6 |
| 20260904143306 | 75 | 150 | 1.0 | 5.0 | 0.00 | 0.00 | 0.00 | 32 | 1020.6 |
| 20260904142806 | 75 | 108 | 1.0 | 5.0 | 0.00 | 0.00 | 0.00 | 32 | 1020.6 |
| 20260904142306 | 75 | 94 | 2.0 | 6.0 | 0.00 | 0.00 | 0.00 | 31 | 1020.6 |
| 20260904142035 | 75 | 108 | 2.0 | 6.0 | 0.00 | 0.00 | 0.00 | 32 | 1020.6 |
| 20260904141303 | 77 | 111 | 1.0 | 5.0 | 0.00 | 0.00 | 0.00 | 30 | 1020.6 |
| 20260904140804 | 77 | 253 | 0.0 | 2.0 | 0.00 | 0.00 | 0.00 | 28 | 1020.6 |
| 20260904140302 | 76 | 270 | 0.0 | 2.0 | 0.00 | 0.00 | 0.00 | 28 | 1020.6 |
| 20260904135759 | 75 | 259 | 0.0 | 2.0 | 0.00 | 0.00 | 0.00 | 28 | 1020.6 |
| 20260904135259 | 74 | 252 | 1.0 | 5.0 | 0.00 | 0.00 | 0.00 | 29 | 1020.6 |
| 20260904134802 | 73 | 242 | 1.0 | 5.0 | 0.00 | 0.00 | 0.00 | 29 | 1020.6 |
| 20260904134301 | 72 | 148 | 0.0 | 4.0 | 0.00 | 0.00 | 0.00 | 32 | 1020.6 |
| 20260904133800 | 72 | 238 | 0.0 | 1.0 | 0.00 | 0.00 | 0.00 | 33 | 1020.6 |
| 20260904133259 | 71 | 244 | 0.0 | 1.0 | 0.00 | 0.00 | 0.00 | 33 | 1020.6 |
| 20260904132800 | 72 | 244 | 0.0 | 1.0 | 0.00 | 0.00 | 0.00 | 34 | 1020.6 |
| 20260904132300 | 71 | 244 | 0.0 | 0.0 | 0.00 | 0.00 | 0.00 | 34 | 1020.6 |
| 20260904131800 | 70 | 244 | 0.0 | 0.0 | 0.00 | 0.00 | 0.00 | 35 | 1020.6 |
| 20260904131530 | 70 | 244 | 0.0 | 1.0 | 0.00 | 0.00 | 0.00 | 33 | 1020.6 |
| 20260904130757 | 69 | 247 | 0.0 | 1.0 | 0.00 | 0.00 | 0.00 | 34 | 1020.6 |
| 20260904130257 | 67 | 266 | 0.0 | 0.0 | 0.00 | 0.00 | 0.00 | 35 | 1020.6 |
| 20260904125758 | 67 | 267 | 0.0 | 0.0 | 0.00 | 0.00 | 0.00 | 36 | 1020.6 |
| 20260904125258 | 65 | 266 | 0.0 | 0.0 | 0.00 | 0.00 | 0.00 | 37 | 1020.6 |
| 20260904125030 | 65 | 267 | 1.0 | 5.0 | 0.00 | 0.00 | 0.00 | 39 | 1020.6 |
| 20260904124257 | 64 | 267 | 1.0 | 5.0 | 0.00 | 0.00 | 0.00 | 39 | 1020.6 |
| 20260904123758 | 63 | 276 | 0.0 | 3.0 | 0.00 | 0.00 | 0.00 | 41 | 1020.6 |
| 20260904123526 | 62 | 287 | 0.0 | 3.0 | 0.00 | 0.00 | 0.00 | 41 | 1020.6 |
| 20260904122756 | 62 | 254 | 0.0 | 0.0 | 0.00 | 0.00 | 0.00 | 42 | 1020.6 |
| 20260904122529 | 62 | 254 | 0.0 | 0.0 | 0.00 | 0.00 | 0.00 | 42 | 1020.6 |
| 20260904121757 | 63 | 264 | 0.0 | 2.0 | 0.00 | 0.00 | 0.00 | 40 | 1020.6 |
| 20260904121255 | 63 | 264 | 0.0 | 3.0 | 0.00 | 0.00 | 0.00 | 40 | 1020.6 |
| 20260904120756 | 63 | 245 | 0.0 | 3.0 | 0.00 | 0.00 | 0.00 | 40 | 1020.6 |
| 20260904120527 | 63 | 203 | 0.0 | 0.0 | 0.00 | 0.00 | 0.00 | 40 | 1020.6 |